| time (UTC) | temp F | wind direction | speed MPH | gust MPH | rain 1hr in | rain 24hr in | rain mn in | humidity % | barometer mb |
| 20260502221003 | 52 | 351 | 0.0 | 1.0 | 0.00 | 0.94 | 0.94 | 95 | 1009.8 |
| 20260502220003 | 52 | 351 | 0.0 | 1.0 | 0.00 | 0.94 | 0.94 | 95 | 1009.9 |
| 20260502215003 | 52 | 351 | 0.0 | 1.0 | 0.00 | 0.94 | 0.94 | 95 | 1009.7 |
| 20260502214003 | 52 | 351 | 0.0 | 1.0 | 0.00 | 0.94 | 0.94 | 95 | 1009.6 |
| 20260502213003 | 52 | 351 | 0.0 | 1.0 | 0.00 | 0.94 | 0.94 | 95 | 1009.8 |
| 20260502212003 | 52 | 350 | 0.0 | 2.0 | 0.01 | 0.94 | 0.94 | 95 | 1009.7 |
| 20260502211003 | 52 | 351 | 0.0 | 1.0 | 0.01 | 0.94 | 0.94 | 95 | 1009.9 |
| 20260502210003 | 52 | 356 | 1.0 | 2.0 | 0.03 | 0.94 | 0.94 | 95 | 1010.1 |
| 20260502205003 | 52 | 354 | 1.0 | 3.0 | 0.04 | 0.94 | 0.94 | 95 | 1009.9 |
| 20260502204003 | 52 | 1 | 3.0 | 7.0 | 0.05 | 0.94 | 0.94 | 95 | 1010.2 |
| 20260502203003 | 52 | 352 | 3.0 | 7.0 | 0.05 | 0.94 | 0.94 | 95 | 1010.3 |
| 20260502202003 | 53 | 3 | 2.0 | 3.0 | 0.05 | 0.93 | 0.93 | 95 | 1010.2 |
| 20260502201003 | 53 | 284 | 1.0 | 3.0 | 0.06 | 0.93 | 0.93 | 95 | 1010.3 |
| 20260502200003 | 53 | 226 | 0.0 | 1.0 | 0.04 | 0.91 | 0.91 | 95 | 1010.2 |
| 20260502195003 | 53 | 200 | 1.0 | 2.0 | 0.05 | 0.90 | 0.90 | 95 | 1010.2 |
| 20260502194003 | 53 | 72 | 1.0 | 3.0 | 0.05 | 0.89 | 0.89 | 95 | 1010.3 |
| 20260502193003 | 53 | 355 | 3.0 | 6.0 | 0.06 | 0.89 | 0.89 | 95 | 1010.1 |
| 20260502192003 | 54 | 3 | 2.0 | 3.0 | 0.07 | 0.88 | 0.88 | 95 | 1010.1 |
| 20260502191003 | 54 | 26 | 1.0 | 2.0 | 0.11 | 0.87 | 0.87 | 95 | 1010.0 |
| 20260502190218 | 54 | 360 | 1.0 | 3.0 | 0.20 | 0.87 | 0.87 | 94 | 1010.1 |
| 20260502185003 | 54 | 5 | 2.0 | 4.0 | 0.31 | 0.85 | 0.85 | 94 | 1010.0 |
| 20260502184003 | 54 | 36 | 2.0 | 7.0 | 0.39 | 0.84 | 0.84 | 94 | 1010.0 |
| 20260502182003 | 54 | 145 | 0.0 | 1.0 | 0.43 | 0.81 | 0.81 | 94 | 1010.2 |
| 20260502181003 | 55 | 147 | 0.0 | 1.0 | 0.42 | 0.76 | 0.76 | 94 | 1010.4 |
| 20260502164216 | 56 | 91 | 2.0 | 6.0 | 0.17 | 0.30 | 0.30 | 89 | 1011.0 |
| 20260502163003 | 56 | 100 | 1.0 | 4.0 | 0.20 | 0.28 | 0.28 | 88 | 1011.2 |
| 20260502162003 | 57 | 102 | 0.0 | 1.0 | 0.21 | 0.25 | 0.25 | 87 | 1011.7 |
| 20260502161003 | 58 | 103 | 0.0 | 1.0 | 0.20 | 0.21 | 0.21 | 87 | 1011.5 |
| 20260502152003 | 60 | 102 | 0.0 | 2.0 | 0.03 | 0.04 | 0.04 | 72 | 1012.0 |
| 20260502151003 | 61 | 102 | 1.0 | 2.0 | 0.00 | 0.02 | 0.01 | 69 | 1011.8 |
| 20260502150221 | 62 | 102 | 1.0 | 3.0 | 0.00 | 0.02 | 0.01 | 66 | 1011.9 |
| 20260502123003 | 62 | 105 | 3.0 | 6.0 | 0.00 | 0.03 | 0.01 | 66 | 1014.1 |
| 20260502122003 | 62 | 107 | 2.0 | 4.0 | 0.00 | 0.03 | 0.01 | 64 | 1014.0 |
| 20260502121003 | 62 | 106 | 3.0 | 4.0 | 0.00 | 0.03 | 0.01 | 66 | 1014.3 |
| 20260502115003 | 62 | 108 | 2.0 | 4.0 | 0.00 | 0.03 | 0.01 | 66 | 1014.5 |
| 20260502114003 | 61 | 104 | 3.0 | 6.0 | 0.00 | 0.03 | 0.01 | 66 | 1014.5 |
| 20260502113003 | 62 | 110 | 2.0 | 4.0 | 0.00 | 0.03 | 0.01 | 67 | 1014.8 |
| 20260502112003 | 62 | 110 | 2.0 | 6.0 | 0.00 | 0.03 | 0.01 | 67 | 1014.9 |
| 20260502111003 | 61 | 105 | 2.0 | 4.0 | 0.00 | 0.03 | 0.01 | 67 | 1015.2 |
| 20260502110003 | 61 | 105 | 2.0 | 4.0 | 0.00 | 0.03 | 0.01 | 67 | 1015.1 |
| 20260502105003 | 61 | 109 | 2.0 | 4.0 | 0.00 | 0.03 | 0.01 | 67 | 1015.7 |
| 20260502104003 | 60 | 111 | 2.0 | 4.0 | 0.00 | 0.03 | 0.01 | 70 | 1015.7 |
| 20260502103003 | 60 | 115 | 2.0 | 3.0 | 0.00 | 0.03 | 0.01 | 69 | 1015.6 |
| 20260502102003 | 62 | 142 | 1.0 | 2.0 | 0.00 | 0.03 | 0.01 | 65 | 1015.5 |
| 20260502101218 | 60 | 107 | 2.0 | 3.0 | 0.00 | 0.03 | 0.01 | 68 | 1015.5 |
| 20260502091219 | 55 | 112 | 3.0 | 6.0 | 0.00 | 0.03 | 0.01 | 81 | 1016.2 |
| 20260502090220 | 56 | 113 | 3.0 | 4.0 | 0.00 | 0.03 | 0.01 | 80 | 1016.2 |
| 20260502071003 | 50 | 0 | 0.0 | 0.0 | 0.00 | 0.03 | 0.01 | 97 | 1016.9 |
| 20260502070003 | 49 | 274 | 0.0 | 1.0 | 0.00 | 0.03 | 0.01 | 96 | 1017.0 |
| 20260502065003 | 49 | 274 | 0.0 | 1.0 | 0.00 | 0.03 | 0.01 | 97 | 1016.9 |
| 20260502064003 | 48 | 274 | 1.0 | 3.0 | 0.00 | 0.03 | 0.01 | 96 | 1016.9 |
| 20260502063219 | 48 | 273 | 1.0 | 3.0 | 0.00 | 0.03 | 0.01 | 96 | 1016.8 |
| 20260502062003 | 47 | 272 | 1.0 | 3.0 | 0.00 | 0.03 | 0.01 | 96 | 1016.9 |
| 20260502061003 | 47 | 271 | 1.0 | 2.0 | 0.00 | 0.03 | 0.01 | 96 | 1017.1 |
| 20260502060003 | 47 | 270 | 1.0 | 2.0 | 0.00 | 0.03 | 0.01 | 96 | 1017.2 |
| 20260502055003 | 47 | 270 | 1.0 | 2.0 | 0.00 | 0.03 | 0.01 | 96 | 1017.2 |
| 20260502054003 | 46 | 270 | 0.0 | 1.0 | 0.00 | 0.03 | 0.01 | 96 | 1017.0 |
| 20260502053003 | 46 | 270 | 0.0 | 1.0 | 0.01 | 0.03 | 0.01 | 96 | 1017.1 |
| 20260502052003 | 45 | 270 | 1.0 | 2.0 | 0.01 | 0.03 | 0.01 | 96 | 1017.0 |
| 20260502051003 | 45 | 270 | 1.0 | 2.0 | 0.01 | 0.03 | 0.01 | 96 | 1016.8 |
| 20260502050003 | 44 | 269 | 0.0 | 1.0 | 0.01 | 0.03 | 0.01 | 95 | 1016.8 |
| 20260502045003 | 44 | 269 | 0.0 | 1.0 | 0.01 | 0.03 | 0.01 | 95 | 1016.9 |
| 20260502044003 | 45 | 269 | 0.0 | 1.0 | 0.01 | 0.03 | 0.01 | 95 | 1017.1 |
| 20260502043003 | 45 | 270 | 1.0 | 2.0 | 0.00 | 0.02 | 0.00 | 95 | 1016.7 |
| 20260502042003 | 45 | 269 | 1.0 | 2.0 | 0.00 | 0.02 | 0.00 | 95 | 1016.8 |
| 20260502041003 | 45 | 269 | 0.0 | 2.0 | 0.00 | 0.02 | 0.00 | 95 | 1016.8 |
| 20260502040003 | 45 | 269 | 0.0 | 1.0 | 0.00 | 0.02 | 0.00 | 95 | 1017.0 |
| 20260502035219 | 45 | 269 | 0.0 | 1.0 | 0.00 | 0.02 | 0.00 | 95 | 1017.1 |
| 20260502034003 | 45 | 269 | 0.0 | 2.0 | 0.00 | 0.02 | 0.00 | 95 | 1017.3 |
| 20260502033221 | 45 | 269 | 0.0 | 1.0 | 0.00 | 0.02 | 0.00 | 95 | 1017.2 |
| 20260502032216 | 46 | 269 | 1.0 | 2.0 | 0.00 | 0.02 | 0.00 | 94 | 1017.2 |
| 20260502031003 | 46 | 269 | 1.0 | 2.0 | 0.00 | 0.02 | 0.00 | 94 | 1017.1 |
| 20260502030003 | 46 | 269 | 0.0 | 2.0 | 0.00 | 0.02 | 0.00 | 94 | 1017.5 |
| 20260502025003 | 46 | 269 | 0.0 | 1.0 | 0.00 | 0.02 | 0.00 | 94 | 1017.2 |
| 20260502024220 | 46 | 269 | 0.0 | 1.0 | 0.00 | 0.02 | 0.00 | 94 | 1017.7 |
| 20260502023003 | 47 | 269 | 0.0 | 1.0 | 0.00 | 0.02 | 0.00 | 94 | 1017.3 |
| 20260502022003 | 46 | 269 | 0.0 | 1.0 | 0.00 | 0.02 | 0.00 | 94 | 1017.4 |
| 20260502021003 | 46 | 0 | 0.0 | 0.0 | 0.00 | 0.02 | 0.00 | 94 | 1017.5 |
| 20260502020003 | 47 | 269 | 1.0 | 2.0 | 0.00 | 0.02 | 0.00 | 93 | 1017.5 |
| 20260502015003 | 47 | 269 | 1.0 | 2.0 | 0.00 | 0.02 | 0.00 | 93 | 1017.5 |
| 20260502014221 | 47 | 269 | 1.0 | 2.0 | 0.00 | 0.02 | 0.00 | 93 | 1017.7 |
| 20260502013217 | 47 | 269 | 1.0 | 2.0 | 0.00 | 0.02 | 0.00 | 93 | 1017.6 |
| 20260502012003 | 48 | 269 | 0.0 | 2.0 | 0.00 | 0.02 | 0.00 | 93 | 1017.9 |
| 20260502011219 | 48 | 269 | 0.0 | 1.0 | 0.00 | 0.02 | 0.00 | 92 | 1017.8 |
| 20260502010003 | 48 | 269 | 0.0 | 1.0 | 0.00 | 0.02 | 0.00 | 92 | 1018.0 |
| 20260502005003 | 48 | 0 | 0.0 | 0.0 | 0.00 | 0.02 | 0.00 | 92 | 1018.0 |
| 20260502004003 | 48 | 0 | 0.0 | 0.0 | 0.00 | 0.02 | 0.00 | 92 | 1018.0 |
| 20260502003003 | 49 | 269 | 0.0 | 2.0 | 0.00 | 0.02 | 0.00 | 92 | 1018.2 |
| 20260502002003 | 49 | 269 | 1.0 | 2.0 | 0.00 | 0.02 | 0.00 | 92 | 1018.2 |
| 20260502001003 | 49 | 269 | 2.0 | 3.0 | 0.00 | 0.02 | 0.00 | 92 | 1018.4 |
| 20260502000003 | 50 | 268 | 1.0 | 3.0 | 0.00 | 0.02 | 0.00 | 92 | 1018.4 |
| 20260501235003 | 50 | 263 | 2.0 | 4.0 | 0.00 | 0.02 | 0.00 | 91 | 1018.3 |
| 20260501234003 | 50 | 258 | 1.0 | 4.0 | 0.00 | 0.02 | 0.00 | 91 | 1018.4 |
| 20260501233003 | 51 | 254 | 1.0 | 2.0 | 0.00 | 0.02 | 0.00 | 91 | 1018.7 |
| 20260501232219 | 51 | 257 | 1.0 | 3.0 | 0.00 | 0.02 | 0.00 | 91 | 1018.6 |
| 20260501231003 | 51 | 255 | 1.0 | 3.0 | 0.00 | 0.02 | 0.00 | 91 | 1018.7 |
| 20260501230003 | 51 | 248 | 1.0 | 4.0 | 0.00 | 0.02 | 0.00 | 91 | 1018.8 |
| 20260501225003 | 51 | 232 | 1.0 | 3.0 | 0.00 | 0.02 | 0.02 | 91 | 1018.9 |
| 20260501224003 | 51 | 234 | 1.0 | 4.0 | 0.00 | 0.02 | 0.02 | 91 | 1018.8 |
| 20260501223003 | 51 | 238 | 1.0 | 4.0 | 0.00 | 0.02 | 0.02 | 90 | 1018.8 |
| 20260501222003 | 51 | 237 | 1.0 | 4.0 | 0.00 | 0.02 | 0.02 | 91 | 1018.7 |